User: anonymous   Login
Location: *
(58.4167°N, 22.5000°E)
Time: 04:31:01
(UTC+00:00)
Language:

Helios 1A - Orbit

View from above orbital plane
View from above orbital plane
View from above satellite
View from above satellite

Ground track
Ground track

The orbit data is extracted from the following two-line orbital elements,

1 23605U 95033A   19252.91374098 0.00000140  00000-0  14067-4 0    06
2 23605  98.1788 341.8882 0015399 299.7082  60.2916 14.91237839    08
Epoch (UTC): 09 September 2019 21:55:47
Eccentricity: 0.0015399
inclination: 98.1788°
perigee height: 583 km
apogee height: 605 km
right ascension of ascending node: 341.8882°
argument of perigee: 299.7082°
revolutions per day: 14.91237839
mean anomaly at epoch: 60.2916°
orbit number at epoch: 0

The dashed part of the orbit path shows where the satellite is in the earth's shadow,  

DLR